Simultaneous Nadir Overpasses (SNOs) Predictions

Prediction of SNOs between METOP-C and LANDSAT-8 Satellite Orbit:

Table of predicted SNOs for the next 14.0 days since TLE Epoch: 12/23/2023
Index Date (METOP-C) Time (METOP-C) Lat,Lon (METOP-C) SZA (METOP-C ) Date (LANDSAT-8) Time (LANDSAT-8) Lat,Lon (LANDSAT-8) SZA (LANDSAT-8 ) Distance(km) Time Diff (sec)
1 12/25/2023 15:08:41 -81.12, 172.44 73.60 12/25/2023 15:08:58 -81.12, 172.55 73.58 1.83 17
2 12/25/2023 15:59:20 81.15, -19.32 106.52 12/25/2023 15:58:23 81.15, -19.39 106.48 1.28 57
3 12/28/2023 10:43:04 -81.14,-120.75 73.69 12/28/2023 10:43:11 -81.14,-120.69 73.68 1.22 7
4 12/28/2023 11:33:43 81.16, 47.51 106.43 12/28/2023 11:32:36 81.17, 47.35 106.38 2.68 67
5 12/31/2023 05:26:48 81.12, 137.91 106.07 12/31/2023 05:27:57 81.12, 137.81 106.09 1.76 69
6 12/31/2023 06:17:27 -81.14, -54.31 73.89 12/31/2023 06:17:23 -81.15, -54.19 73.87 2.40 4
7 01/03/2024 01:01:13 81.11,-156.03 105.77 01/03/2024 01:02:10 81.11,-155.97 105.79 1.17 57
8 01/03/2024 01:51:51 -81.14, 12.12 74.14 01/03/2024 01:51:36 -81.13, 12.06 74.16 1.27 15
9 01/05/2024 20:35:36 81.12, -89.22 105.50 01/05/2024 20:36:21 81.12, -89.27 105.51 0.78 45



Historial Predications of SNOs between METOP-C and LANDSAT-8
